TimeCST,TemperatureF,Dew PointF,Humidity,Sea Level PressureIn,VisibilityMPH,Wind Direction,Wind SpeedMPH,Gust SpeedMPH,PrecipitationIn,Events,Conditions,WindDirDegrees,DateUTC
12:15 AM,15.8,10.4,79,30.41,10.0,Calm,Calm,-,N/A,,Clear,0,2012-11-27 06:15:00
12:35 AM,17.6,12.2,79,30.41,10.0,Calm,Calm,-,N/A,,Clear,0,2012-11-27 06:35:00
12:55 AM,17.6,12.2,79,30.41,10.0,West,3.5,-,N/A,,Clear,270,2012-11-27 06:55:00
1:15 AM,15.8,10.4,79,30.40,6.0,West,4.6,-,N/A,,Clear,260,2012-11-27 07:15:00
1:35 AM,15.8,10.4,79,30.40,8.0,West,4.6,-,N/A,,Clear,270,2012-11-27 07:35:00
1:55 AM,15.8,10.4,79,30.40,8.0,WNW,3.5,-,N/A,,Clear,290,2012-11-27 07:55:00
2:15 AM,17.6,14.0,86,30.40,9.0,Calm,Calm,-,N/A,,Clear,0,2012-11-27 08:15:00
2:35 AM,17.6,12.2,79,30.39,7.0,West,3.5,-,N/A,,Clear,260,2012-11-27 08:35:00
2:55 AM,15.8,10.4,79,30.39,5.0,West,3.5,-,N/A,,Clear,260,2012-11-27 08:55:00
3:15 AM,14.0,10.4,86,30.38,9.0,Calm,Calm,-,N/A,,Clear,0,2012-11-27 09:15:00
3:35 AM,15.8,12.2,86,30.36,9.0,Calm,Calm,-,N/A,,Clear,0,2012-11-27 09:35:00
3:55 AM,19.4,17.6,93,30.35,8.0,WSW,3.5,-,N/A,,Clear,250,2012-11-27 09:55:00
4:15 AM,15.8,12.2,86,30.34,5.0,Calm,Calm,-,N/A,,Clear,0,2012-11-27 10:15:00
4:35 AM,14.0,10.4,86,30.34,5.0,SSW,4.6,-,N/A,,Clear,200,2012-11-27 10:35:00
4:55 AM,15.8,10.4,79,30.34,7.0,SW,5.8,-,N/A,,Clear,220,2012-11-27 10:55:00
5:15 AM,15.8,12.2,86,30.33,9.0,SSW,5.8,-,N/A,,Clear,200,2012-11-27 11:15:00
5:35 AM,15.8,12.2,86,30.34,9.0,SSW,3.5,-,N/A,,Clear,200,2012-11-27 11:35:00
5:55 AM,17.6,12.2,79,30.33,8.0,SSW,4.6,-,N/A,,Clear,200,2012-11-27 11:55:00
6:35 AM,15.8,12.2,86,30.32,8.0,SSW,4.6,-,N/A,,Clear,200,2012-11-27 12:35:00
6:55 AM,15.8,10.4,79,30.31,9.0,SSW,6.9,-,N/A,,Clear,200,2012-11-27 12:55:00
7:15 AM,15.8,12.2,86,30.31,8.0,SW,6.9,-,N/A,,Clear,220,2012-11-27 13:15:00
7:35 AM,15.8,12.2,86,30.32,7.0,SW,4.6,-,N/A,,Clear,220,2012-11-27 13:35:00
7:55 AM,15.8,12.2,86,30.32,7.0,SSW,5.8,-,N/A,,Clear,210,2012-11-27 13:55:00
8:15 AM,17.6,14.0,86,30.32,7.0,SSW,8.1,-,N/A,,Clear,210,2012-11-27 14:15:00
8:35 AM,19.4,15.8,86,30.32,7.0,SSW,6.9,-,N/A,,Clear,210,2012-11-27 14:35:00
9:15 AM,24.8,19.4,80,30.32,9.0,SSW,10.4,-,N/A,,Clear,200,2012-11-27 15:15:00
9:35 AM,26.6,21.2,80,30.31,10.0,South,12.7,-,N/A,,Clear,190,2012-11-27 15:35:00
9:55 AM,28.4,23.0,80,30.30,10.0,South,13.8,-,N/A,,Clear,190,2012-11-27 15:55:00
10:15 AM,33.8,24.8,70,30.29,10.0,South,15.0,-,N/A,,Clear,190,2012-11-27 16:15:00
10:35 AM,35.6,26.6,70,30.29,10.0,SSW,15.0,-,N/A,,Clear,200,2012-11-27 16:35:00
10:55 AM,39.2,26.6,61,30.28,10.0,SSW,17.3,23.0,N/A,,Clear,210,2012-11-27 16:55:00
11:15 AM,41.0,26.6,57,30.27,10.0,SSW,19.6,-,N/A,,Clear,200,2012-11-27 17:15:00
11:35 AM,42.8,26.6,53,30.26,10.0,SSW,19.6,-,N/A,,Clear,210,2012-11-27 17:35:00
11:55 AM,42.8,26.6,53,30.25,10.0,SW,19.6,24.2,N/A,,Clear,220,2012-11-27 17:55:00
12:15 PM,44.6,26.6,49,30.23,10.0,SSW,20.7,-,N/A,,Clear,210,2012-11-27 18:15:00
12:35 PM,44.6,28.4,53,30.21,10.0,SW,18.4,25.3,N/A,,Clear,220,2012-11-27 18:35:00
12:55 PM,46.4,28.4,50,30.19,10.0,SW,19.6,25.3,N/A,,Clear,220,2012-11-27 18:55:00
1:15 PM,48.2,28.4,46,30.18,10.0,SSW,13.8,25.3,N/A,,Clear,200,2012-11-27 19:15:00
1:35 PM,48.2,28.4,46,30.17,10.0,SW,20.7,24.2,N/A,,Clear,220,2012-11-27 19:35:00
1:55 PM,50.0,28.4,43,30.16,10.0,SW,20.7,24.2,N/A,,Clear,220,2012-11-27 19:55:00
2:15 PM,51.8,28.4,41,30.16,10.0,SW,15.0,-,N/A,,Clear,220,2012-11-27 20:15:00
2:35 PM,51.8,28.4,41,30.14,10.0,SW,18.4,-,N/A,,Clear,220,2012-11-27 20:35:00
2:55 PM,51.8,28.4,41,30.14,10.0,SSW,18.4,-,N/A,,Clear,210,2012-11-27 20:55:00
3:15 PM,51.8,28.4,41,30.13,10.0,SW,15.0,-,N/A,,Clear,220,2012-11-27 21:15:00
3:35 PM,53.6,28.4,38,30.14,10.0,SSW,15.0,-,N/A,,Clear,210,2012-11-27 21:35:00
3:55 PM,51.8,28.4,41,30.14,10.0,SW,12.7,-,N/A,,Clear,220,2012-11-27 21:55:00
4:15 PM,51.8,28.4,41,30.14,10.0,SSW,10.4,-,N/A,,Clear,200,2012-11-27 22:15:00
4:35 PM,51.8,28.4,41,30.15,10.0,SSW,10.4,-,N/A,,Clear,210,2012-11-27 22:35:00
4:55 PM,48.2,26.6,43,30.15,10.0,SSW,9.2,-,N/A,,Clear,200,2012-11-27 22:55:00
5:15 PM,46.4,26.6,46,30.16,10.0,SSW,6.9,-,N/A,,Clear,210,2012-11-27 23:15:00
6:15 PM,42.8,24.8,49,30.18,10.0,SSE,4.6,-,N/A,,Clear,160,2012-11-28 00:15:00
6:35 PM,37.4,24.8,60,30.18,10.0,SSE,5.8,-,N/A,,Clear,150,2012-11-28 00:35:00
6:55 PM,37.4,23.0,56,30.19,10.0,SE,5.8,-,N/A,,Clear,140,2012-11-28 00:55:00
7:15 PM,35.6,21.2,56,30.19,10.0,SE,4.6,-,N/A,,Clear,130,2012-11-28 01:15:00
7:35 PM,33.8,21.2,60,30.20,10.0,ESE,5.8,-,N/A,,Clear,120,2012-11-28 01:35:00
7:55 PM,33.8,21.2,60,30.21,10.0,SSE,5.8,-,N/A,,Clear,150,2012-11-28 01:55:00
8:35 PM,30.2,19.4,64,30.21,10.0,South,5.8,-,N/A,,Clear,170,2012-11-28 02:35:00
8:55 PM,30.2,21.2,69,30.22,10.0,Calm,Calm,-,N/A,,Clear,0,2012-11-28 02:55:00
9:15 PM,32.0,21.2,64,30.22,10.0,South,4.6,-,N/A,,Clear,190,2012-11-28 03:15:00
9:35 PM,30.2,21.2,69,30.22,10.0,Calm,Calm,-,N/A,,Clear,0,2012-11-28 03:35:00
9:55 PM,30.2,21.2,69,30.22,10.0,Calm,Calm,-,N/A,,Clear,0,2012-11-28 03:55:00
10:15 PM,28.4,19.4,69,30.23,10.0,Calm,Calm,-,N/A,,Clear,0,2012-11-28 04:15:00
10:35 PM,30.2,19.4,64,30.23,10.0,Calm,Calm,-,N/A,,Clear,0,2012-11-28 04:35:00
10:55 PM,24.8,12.2,59,30.23,10.0,Calm,Calm,-,N/A,,Clear,0,2012-11-28 04:55:00
11:15 PM,28.4,17.6,64,30.24,10.0,Calm,Calm,-,N/A,,Clear,0,2012-11-28 05:15:00
11:55 PM,26.6,17.6,69,30.24,10.0,Calm,Calm,-,N/A,,Clear,0,2012-11-28 05:55:00